Bainbridge, GA

11:52 PM EST on November 19, 2019 (GMT -0500)
Decatur County Industrial

Weather History for KBGE - October, 2019

Change the Weather History Date:

Monday, October 21, 2019

  Actual Average (KTLH) Record (KTLH)
Temperature  
Mean Temperature 72 °F -  
Max Temperature 84 °F 80 °F 90 °F (1993)
Min Temperature 59 °F 53 °F 30 °F (1989)
Cooling Degree Days 6    
Growing Degree Days 22 (Base 50)    
Moisture  
Dew Point 64 °F    
Average Humidity 81    
Maximum Humidity 99    
Minimum Humidity 52    
Precipitation  
Precipitation 0.00 in - - ()
Sea Level Pressure  
Sea Level Pressure 29.96 in    
Wind  
Wind Speed 3 mph ()    
Max Wind Speed 10 mph    
Max Gust Speed -    
Visibility 8.7 miles    
Events      
Averages and records for this station are not official NWS values.
T = Trace of Precipitation, MM = Missing Value Source: Averaged Metar Reports

Daily Weather History Graph

Daily Weather History Graph

Search for Another Location

Airport or City:

Astronomy

Oct. 21, 2019 Rise Set
Actual Time 7:45 AM EDT 7:00 PM EDT
Civil Twilight 7:20 AM EDT 7:25 PM EDT
Nautical Twilight 6:52 AM EDT 7:53 PM EDT
Astronomical Twilight 6:24 AM EDT 8:21 PM EDT
Moon 12:24 AM EDT (10/21) 2:49 PM EDT (10/21)
Length of Visible Light 12h 04m
Length of Day
11h 15m
Waning Gibbous, 48% of the Moon is Illuminated
Oct 21
Waning Gibbous
Oct 27
New
Nov 4
First Quarter
Nov 12
Full
Nov 19
Last Quarter

Hourly Weather History & Observations

Time (EDT) Temp. Heat Index Dew Point Humidity Pressure Visibility Wind Dir Wind Speed Gust Speed Precip Events Conditions
12:15 AM 63.0 °F - 62.2 °F 97% 29.98 in 10.0 mi Calm Calm - N/A   Clear
12:35 AM 62.4 °F - 61.7 °F 97% 29.98 in 10.0 mi Calm Calm - N/A   Clear
12:55 AM 62.6 °F - 61.9 °F 97% 29.98 in 10.0 mi Calm Calm - N/A   Clear
1:15 AM 62.1 °F - 61.5 °F 98% 29.98 in 10.0 mi Calm Calm - N/A   Clear
1:35 AM 60.8 °F - 60.1 °F 97% 29.98 in 7.0 mi SE 3.5 mph - N/A   Clear
1:55 AM 60.8 °F - 60.3 °F 98% 29.97 in 7.0 mi Calm Calm - N/A   Clear
2:15 AM 61.2 °F - 60.8 °F 99% 29.97 in 7.0 mi SSE 3.5 mph - N/A   Clear
2:35 AM 61.3 °F - 61.0 °F 99% 29.97 in 10.0 mi Calm Calm - N/A   Clear
2:55 AM 61.9 °F - 61.3 °F 98% 29.97 in 7.0 mi Calm Calm - N/A   Clear
3:15 AM 61.0 °F - 60.6 °F 99% 29.96 in 7.0 mi Calm Calm - N/A   Clear
3:35 AM 61.2 °F - 61.0 °F 99% 29.96 in 4.0 mi ESE 3.5 mph - N/A   Clear
3:55 AM 60.4 °F - 60.1 °F 99% 29.95 in 7.0 mi SE 3.5 mph - N/A   Clear
4:15 AM 61.0 °F - 60.6 °F 99% 29.95 in 7.0 mi SSE 5.8 mph - N/A   Clear
4:35 AM 61.2 °F - 60.8 °F 99% 29.94 in 5.0 mi SSE 4.6 mph - N/A   Clear
4:55 AM 60.8 °F - 60.4 °F 99% 29.94 in 5.0 mi ESE 3.5 mph - N/A   Clear
5:15 AM 59.9 °F - 59.5 °F 99% 29.94 in 4.0 mi ESE 4.6 mph - N/A   Clear
5:35 AM 59.4 °F - 59.0 °F 99% 29.94 in 3.5 mi ESE 3.5 mph - N/A   Clear
5:55 AM 59.9 °F - 59.7 °F 99% 29.94 in 5.0 mi SE 3.5 mph - N/A   Clear
6:15 AM 59.7 °F - 59.5 °F 99% 29.95 in 7.0 mi East 3.5 mph - N/A   Clear
6:35 AM 60.4 °F - 60.1 °F 99% 29.95 in 7.0 mi ENE 4.6 mph - N/A   Clear
6:55 AM 60.4 °F - 59.9 °F 98% 29.96 in 10.0 mi NNE 3.5 mph - N/A   Clear
7:15 AM 60.1 °F - 59.7 °F 99% 29.96 in 5.0 mi Calm Calm - N/A   Clear
7:35 AM 59.4 °F - 59.0 °F 99% 29.97 in 3.5 mi SE 3.5 mph - N/A   Clear
7:55 AM 59.7 °F - 59.4 °F 99% 29.97 in 3.5 mi ESE 4.6 mph - N/A   Clear
8:15 AM 60.4 °F - 60.3 °F 99% 29.97 in 3.0 mi ESE 4.6 mph - N/A   Clear
8:35 AM 62.8 °F - 62.4 °F 99% 29.97 in 5.0 mi ESE 3.5 mph - N/A   Clear
8:55 AM 64.9 °F - 63.9 °F 96% 29.98 in 10.0 mi ESE 8.1 mph - N/A   Clear
9:15 AM 65.8 °F - 64.0 °F 94% 29.98 in 10.0 mi SE 9.2 mph - N/A   Clear
9:35 AM 67.1 °F - 64.9 °F 93% 29.99 in 10.0 mi SE 8.1 mph - N/A   Clear
9:55 AM 69.1 °F - 65.5 °F 88% 29.99 in 10.0 mi SE 8.1 mph - N/A   Clear
10:15 AM 71.4 °F - 65.8 °F 82% 30.00 in 10.0 mi SE 8.1 mph - N/A   Clear
10:35 AM 72.9 °F - 65.5 °F 78% 30.00 in 10.0 mi ESE 8.1 mph - N/A   Clear
10:55 AM 74.5 °F - 65.7 °F 74% 30.00 in 10.0 mi SSE 9.2 mph - N/A   Clear
11:15 AM 75.6 °F - 65.5 °F 71% 29.99 in 10.0 mi SSE 5.8 mph - N/A   Clear
11:35 AM 76.5 °F - 65.1 °F 68% 30.00 in 10.0 mi Calm Calm - N/A   Clear
11:55 AM 77.7 °F - 65.1 °F 65% 29.99 in 10.0 mi ESE 5.8 mph - N/A   Clear
12:15 PM 79.2 °F - 64.2 °F 60% 29.99 in 10.0 mi South 6.9 mph - N/A   Clear
12:35 PM 79.0 °F - 64.8 °F 62% 29.99 in 10.0 mi SSE 4.6 mph - N/A   Scattered Clouds
12:55 PM 80.1 °F 81.9 °F 65.1 °F 60% 29.98 in 10.0 mi SSE 4.6 mph - N/A   Scattered Clouds
1:15 PM 80.8 °F 82.6 °F 65.1 °F 59% 29.98 in 10.0 mi ESE 6.9 mph - N/A   Scattered Clouds
1:35 PM 81.3 °F 83.0 °F 64.9 °F 57% 29.98 in 10.0 mi ESE 4.6 mph - N/A   Mostly Cloudy
1:55 PM 82.6 °F 83.9 °F 63.9 °F 53% 29.96 in 10.0 mi ESE 8.1 mph - N/A   Mostly Cloudy
2:15 PM 83.5 °F 84.9 °F 64.0 °F 52% 29.95 in 10.0 mi SE 9.2 mph - N/A   Clear
2:35 PM 83.1 °F 84.8 °F 64.8 °F 54% 29.95 in 10.0 mi SE 5.8 mph - N/A   Clear
2:55 PM 84.6 °F 86.6 °F 65.5 °F 53% 29.95 in 10.0 mi South 6.9 mph - N/A   Clear
3:15 PM 84.6 °F 86.8 °F 66.4 °F 54% 29.93 in 10.0 mi SSE 10.4 mph - N/A   Clear
3:35 PM 83.8 °F 85.6 °F 64.9 °F 53% 29.93 in 10.0 mi SE 5.8 mph - N/A   Clear
3:55 PM 83.8 °F 85.3 °F 64.6 °F 52% 29.93 in 10.0 mi SSE 9.2 mph - N/A   Clear
4:15 PM 83.7 °F 85.3 °F 65.1 °F 53% 29.92 in 10.0 mi SE 8.1 mph - N/A   Clear
4:35 PM 84.0 °F 85.8 °F 65.1 °F 53% 29.92 in 10.0 mi South 8.1 mph - N/A   Scattered Clouds
4:55 PM 83.1 °F 85.0 °F 65.3 °F 55% 29.92 in 10.0 mi SE 5.8 mph - N/A   Mostly Cloudy
5:15 PM 82.6 °F 84.7 °F 65.8 °F 57% 29.92 in 10.0 mi SSE 8.1 mph - N/A   Mostly Cloudy
5:35 PM 82.2 °F 84.2 °F 65.8 °F 57% 29.92 in 10.0 mi SSE 6.9 mph - N/A   Scattered Clouds
5:55 PM 81.9 °F 83.7 °F 65.5 °F 57% 29.91 in 10.0 mi SE 8.1 mph - N/A   Scattered Clouds
6:15 PM 80.6 °F 82.4 °F 64.9 °F 59% 29.91 in 10.0 mi South 5.8 mph - N/A   Scattered Clouds
6:35 PM 79.5 °F - 66.0 °F 63% 29.91 in 10.0 mi SSE 8.1 mph - N/A   Mostly Cloudy
6:55 PM 78.1 °F - 66.9 °F 68% 29.92 in 10.0 mi SE 6.9 mph - N/A   Scattered Clouds
7:15 PM 77.0 °F - 67.1 °F 71% 29.93 in 10.0 mi SSE 6.9 mph - N/A   Clear
7:35 PM 76.8 °F - 67.3 °F 72% 29.93 in 10.0 mi SSE 5.8 mph - N/A   Clear
7:55 PM 76.5 °F - 67.1 °F 73% 29.93 in 10.0 mi SSE 8.1 mph - N/A   Clear
8:15 PM 76.1 °F - 67.3 °F 74% 29.93 in 10.0 mi SSE 6.9 mph - N/A   Clear
8:35 PM 75.6 °F - 67.6 °F 76% 29.93 in 10.0 mi SSE 8.1 mph - N/A   Scattered Clouds
8:55 PM 74.8 °F - 68.2 °F 80% 29.94 in 10.0 mi South 5.8 mph - N/A   Clear
9:15 PM 73.9 °F - 68.4 °F 83% 29.95 in 10.0 mi South 4.6 mph - N/A   Clear
9:35 PM 73.6 °F - 68.4 °F 84% 29.95 in 10.0 mi Calm Calm - N/A   Scattered Clouds
9:55 PM 73.2 °F - 68.5 °F 85% 29.95 in 10.0 mi Calm Calm - N/A   Scattered Clouds
10:15 PM 72.5 °F - 68.7 °F 88% 29.96 in 10.0 mi Calm Calm - N/A   Mostly Cloudy
10:35 PM 72.5 °F - 68.7 °F 88% 29.96 in 10.0 mi Calm Calm - N/A   Mostly Cloudy
10:55 PM 71.8 °F - 68.7 °F 90% 29.97 in 10.0 mi Calm Calm - N/A   Scattered Clouds
11:15 PM 72.1 °F - 68.7 °F 89% 29.97 in 10.0 mi Calm Calm - N/A   Mostly Cloudy
11:35 PM 71.1 °F - 68.7 °F 92% 29.97 in 10.0 mi SSE 3.5 mph - N/A   Mostly Cloudy
11:55 PM 71.8 °F - 69.4 °F 92% 29.98 in 10.0 mi Calm Calm - N/A   Mostly Cloudy